User: anonymous   Login
Location: Hurecourt
(47.9030°N, 6.0653°E)
Time: 08:07:28
(UTC+00:00)
Language:

Cosmos 1190 Rocket - Orbit

View from above orbital plane
View from above orbital plane
View from above satellite
View from above satellite

Ground track
Ground track

The orbit data is extracted from the following two-line orbital elements,

1 11870U 80056B   20265.90787948 +.00000033 +00000-0 +19797-4 0  9996
2 11870 074.0545 177.1110 0016732 197.2018 162.8571 14.36981552082261
Epoch (UTC): 21 September 2020 21:47:20
Eccentricity: 0.0016732
inclination: 74.0545°
perigee height: 756 km
apogee height: 780 km
right ascension of ascending node: 177.1110°
argument of perigee: 197.2018°
revolutions per day: 14.36981552
mean anomaly at epoch: 162.8571°
orbit number at epoch: 8226

The dashed part of the orbit path shows where the satellite is in the earth's shadow,  

DLR